Wind_Speed
16 16 16 15 16 15 15 16 16 15 14 14 14 13 12 12 11 11 11 10 10 10 10 10 10 10 9 9 10 9 9 9 9 9 8 6 7 7 7 7 7 5 5 6 6 6 7 8 7 7 7 7 6 7 7 6 6 6 6 6 6 6 6 7 9 11 12 11 11 12 12 12 12 11 11 12 13 14 16 17 18 18 18 18 18
16 16 16 16 16 16 15 15 15 16 15 15 15 14 13 13 13 12 12 12 12 11 11 10 11 11 11 11 10 10 12 12 10 9 9 8 8 8 7 8 7 6 7 7 7 7 8 9 8 7 7 7 7 7 7 7 7 7 7 7 7 7 7 8 10 12 13 13 13 13 13 12 13 13 13 14 15 17 18 18 18 17 17 18 19
17 16 16 16 16 16 15 15 15 16 16 16 15 15 15 14 14 14 13 13 12 12 12 11 12 12 11 12 12 12 13 13 10 10 11 10 9 8 8 8 7 7 8 7 7 7 8 9 9 8 8 8 8 8 8 8 8 8 8 8 9 9 9 10 11 12 13 14 14 14 14 14 14 15 15 15 16 17 18 18 18 18 18 18 19
17 17 17 16 15 15 15 15 16 16 16 16 16 16 16 15 15 14 14 14 13 13 13 12 12 13 13 12 13 13 13 12 11 11 12 11 10 9 9 9 9 8 8 8 8 8 8 9 9 9 9 9 9 9 9 9 9 9 9 9 10 10 10 11 12 12 14 15 15 15 15 16 17 16 15 16 17 18 19 19 19 19 20 19 19
17 18 18 18 16 16 16 16 16 16 16 16 16 17 16 16 16 15 14 14 14 13 13 13 13 14 14 13 13 13 12 12 11 11 11 11 10 9 10 10 10 9 9 9 9 9 10 10 9 9 10 10 10 10 9 9 9 10 10 10 10 11 11 11 12 13 14 15 17 18 18 18 18 16 16 17 18 19 19 20 19 19 20 19 18
17 17 19 19 19 18 17 17 16 16 17 16 16 16 17 17 17 16 15 15 15 14 14 14 14 14 14 13 13 13 12 12 12 12 12 11 11 10 11 11 10 10 10 10 10 10 10 10 11 11 10 10 10 10 10 10 10 10 11 11 11 11 12 12 13 14 15 16 17 18 17 17 17 17 17 17 18 20 21 21 19 19 19 19 19
18 17 18 19 20 19 18 18 17 16 16 16 15 15 16 17 16 16 16 15 15 15 15 14 14 15 15 14 14 13 14 14 13 13 13 12 12 12 11 11 11 10 10 10 10 11 11 11 11 11 11 11 11 11 11 11 11 11 11 12 12 13 13 13 13 14 15 16 17 17 17 17 17 18 18 18 18 19 19 20 21 21 21 21 22
19 20 19 18 18 18 18 18 18 18 17 17 17 15 15 16 16 16 16 16 16 16 16 15 15 15 15 15 14 14 15 15 15 15 14 13 13 12 12 12 11 11 11 11 11 12 12 12 12 12 12 12 12 12 12 11 11 12 11 12 12 13 14 15 15 15 17 17 17 18 18 18 19 18 18 18 18 18 18 20 23 24 24 23 23
18 20 20 18 17 18 17 16 18 20 21 20 21 19 16 15 16 16 17 17 16 17 16 16 16 15 15 15 15 15 15 15 16 16 15 14 14 13 13 13 12 12 12 12 12 12 13 13 13 13 13 12 13 16 16 15 15 15 15 14 14 15 17 17 17 17 18 18 18 19 19 19 18 18 18 18 19 21 21 21 23 24 24 25 26
18 18 18 18 19 19 20 19 18 21 24 23 22 21 18 16 16 16 17 17 17 17 16 17 17 16 16 16 15 16 16 16 16 16 16 15 13 12 13 13 12 12 12 13 13 13 14 14 14 14 15 15 17 20 21 20 18 18 18 18 18 18 19 19 18 18 18 18 19 19 19 19 19 20 21 22 24 25 25 24 26 27 27 29 30
22 22 21 21 20 21 22 23 22 20 21 22 20 20 20 18 17 17 17 17 18 17 17 17 18 17 17 16 16 16 16 16 16 18 18 18 16 13 12 12 12 12 13 14 14 14 15 15 15 15 16 17 19 20 20 19 18 17 18 18 18 18 19 19 19 19 19 20 21 21 21 22 24 26 26 27 27 28 28 27 29 29 28 27 30
21 22 24 24 23 22 23 24 24 21 20 21 21 20 21 21 20 21 19 18 18 19 19 18 18 18 18 17 17 17 16 16 17 19 20 20 20 18 16 14 14 14 14 14 14 15 15 16 16 16 16 16 16 16 17 18 18 18 18 18 19 19 20 21 21 22 22 23 24 25 25 26 29 30 29 27 27 28 27 27 26 25 25 26 29
17 19 20 21 22 24 24 24 24 22 21 21 21 21 21 21 21 22 21 19 19 20 21 20 20 21 20 19 18 17 17 17 18 19 21 22 22 21 19 16 15 15 15 14 14 14 14 15 15 16 16 14 14 15 15 17 18 19 18 19 19 19 20 21 21 22 23 23 26 28 27 27 29 30 29 27 27 28 27 28 28 28 30 32 34
17 19 20 19 19 20 21 22 22 23 23 22 21 20 20 20 21 22 21 21 21 22 22 22 22 22 23 22 19 17 18 19 19 20 21 22 24 23 21 18 17 16 16 16 15 15 15 15 15 15 15 16 17 17 15 15 17 18 16 16 18 18 20 21 21 22 22 22 24 27 27 27 28 30 30 29 30 31 32 35 36 36 37 37 37
18 19 20 20 19 18 19 20 21 21 23 25 24 22 22 22 22 22 23 23 22 21 21 21 21 20 20 20 18 18 20 21 20 21 21 23 25 25 23 21 19 18 18 17 16 16 16 16 15 15 16 18 19 19 18 18 19 19 17 16 17 19 21 22 22 23 22 22 24 25 26 28 29 30 30 31 32 33 34 36 36 35 35 33 31
17 18 17 17 19 20 19 19 20 20 20 21 23 24 26 27 26 25 25 24 22 21 20 18 18 19 20 20 18 18 22 24 23 22 23 24 26 26 23 21 21 21 20 19 18 17 18 18 18 19 20 20 18 18 19 20 21 21 22 21 20 21 22 23 23 23 22 22 24 25 26 28 30 30 28 26 27 27 28 29 29 28 27 26 25
9 11 13 14 16 18 18 18 20 19 18 19 23 25 27 28 26 25 25 24 23 21 19 18 19 20 21 21 19 18 19 21 22 24 25 26 26 25 22 19 20 21 19 18 18 20 22 21 20 20 21 20 18 18 19 20 20 21 21 20 20 21 21 21 22 23 22 23 24 25 27 28 30 29 26 25 24 23 23 25 24 22 21 22 24
5 4 4 6 8 11 12 14 16 15 15 19 23 24 26 26 26 25 24 24 23 20 18 20 22 22 21 21 21 20 20 20 21 23 25 25 25 23 22 21 21 21 19 18 18 19 19 18 19 22 23 22 22 21 21 21 20 20 19 18 19 20 20 21 22 24 24 25 26 27 27 28 28 27 25 24 22 19 18 21 21 21 21 22 23
10 8 5 3 4 4 4 5 6 6 9 12 15 18 21 22 23 24 24 25 24 21 20 22 23 22 23 24 22 23 24 24 25 25 25 25 24 23 24 25 24 22 22 22 20 18 17 16 16 19 22 22 23 23 22 22 22 21 20 20 20 19 19 21 24 25 26 27 27 28 28 27 27 25 23 21 20 19 18 19 19 19 21 21 22
12 12 10 7 7 7 6 5 5 4 4 5 7 11 14 15 16 18 20 22 23 22 22 23 22 21 22 23 21 21 23 24 25 26 25 24 23 22 23 24 22 21 21 20 18 18 19 17 16 17 18 20 20 21 21 22 22 22 21 20 20 19 20 22 24 25 26 26 26 26 25 24 22 20 18 16 16 18 19 19 18 18 20 23 24
11 12 11 10 9 9 8 9 9 7 4 3 2 5 7 9 11 12 14 16 18 20 20 19 19 19 19 19 19 20 23 23 23 22 21 20 20 19 19 20 19 19 20 19 16 17 19 19 19 19 18 18 18 18 20 21 21 21 20 20 20 21 22 23 22 22 23 24 23 21 19 18 16 15 13 13 13 15 16 17 18 19 21 24 25
9 10 10 8 7 7 7 8 9 6 5 5 5 4 4 3 4 5 6 7 10 12 11 10 11 14 14 13 15 18 20 20 19 18 17 16 15 15 14 15 15 17 19 18 17 18 19 19 18 17 17 17 17 18 21 21 20 20 19 19 19 19 19 19 19 19 20 19 18 16 14 13 12 11 12 13 13 14 15 16 17 18 18 19 20
7 7 8 7 6 6 6 6 6 5 5 5 5 5 6 6 6 7 6 3 3 3 3 2 4 6 7 7 9 13 15 16 14 14 13 11 10 9 9 9 10 11 11 13 13 15 17 17 16 16 18 19 18 16 15 15 15 15 14 13 14 14 14 15 15 15 15 14 12 12 11 11 12 12 14 15 15 17 19 19 17 16 16 17 19
6 5 6 6 5 4 4 5 5 4 4 4 4 4 5 5 6 8 7 4 2 4 4 3 2 2 3 5 6 6 8 8 6 5 7 8 9 8 7 7 7 5 5 5 7 9 11 11 11 12 12 13 12 10 9 9 10 11 11 11 12 12 13 14 12 11 11 10 9 10 13 14 15 15 16 18 20 21 22 20 18 17 18 20 21
6 5 5 6 6 5 4 3 4 4 3 3 4 5 5 4 4 5 5 3 4 6 5 3 3 2 1 0 1 1 1 2 2 2 1 2 3 3 4 5 4 3 3 4 5 6 7 8 9 9 9 10 11 11 11 11 11 12 12 13 13 12 12 11 10 10 11 10 11 14 16 15 15 15 17 21 23 22 20 20 20 20 21 21 22
7 6 6 5 3 2 2 2 3 4 4 3 3 3 4 3 3 4 4 2 2 5 6 6 4 2 2 3 2 2 2 2 3 4 3 3 4 5 6 8 6 4 6 8 7 8 9 11 12 13 12 13 14 14 14 13 13 12 10 10 10 9 8 11 15 17 16 14 14 16 16 16 17 18 19 21 21 19 19 20 22 22 23 24 26
6 6 6 4 3 3 4 3 3 3 4 4 4 4 4 3 2 3 4 3 3 2 3 4 4 4 2 1 0 1 1 3 6 8 6 5 6 8 9 10 8 7 10 12 11 12 14 14 14 15 15 15 15 14 12 11 10 8 6 7 6 6 8 15 18 18 16 15 16 18 19 20 20 19 19 19 18 17 17 17 20 24 26 27 28
6 5 5 4 3 3 4 5 5 3 1 2 3 4 4 4 0 5 7 6 3 2 2 2 4 6 6 5 5 3 2 7 10 11 9 8 9 10 10 11 11 10 11 12 12 14 14 14 14 15 14 14 13 11 9 9 8 6 5 5 8 8 10 13 12 10 12 16 20 22 22 21 19 19 19 19 17 16 16 19 23 26 26 26 26
7 5 4 4 4 4 4 3 3 3 3 2 2 4 3 2 3 5 6 8 9 7 5 5 7 8 9 10 10 9 9 11 12 13 14 13 13 14 14 14 14 13 13 13 12 12 12 11 10 10 10 10 9 8 7 6 6 5 5 6 7 6 8 10 9 8 13 20 23 21 19 18 18 20 19 17 16 18 20 23 25 25 23 22 22
5 4 3 3 3 4 4 3 2 4 4 3 3 4 3 3 4 5 4 6 8 10 10 11 11 11 11 14 14 13 14 15 15 15 16 16 16 15 15 14 14 14 13 13 12 11 9 7 6 6 6 6 6 6 6 5 5 5 6 7 7 7 8 9 10 12 19 21 20 16 15 17 19 18 16 17 20 23 23 22 21 20 20 19 19
4 3 1 2 3 4 2 1 1 3 4 3 1 3 4 5 5 6 6 6 6 7 9 11 12 11 13 16 16 15 14 15 15 15 15 15 14 14 14 14 14 13 13 13 12 9 6 5 6 6 5 5 5 6 5 5 5 6 7 7 7 8 8 9 13 19 21 19 15 13 15 17 16 15 16 19 22 22 21 18 18 17 18 18 18
4 3 2 1 0 1 1 1 1 1 2 2 1 1 2 6 9 10 8 6 6 7 7 8 9 10 11 13 14 14 13 13 14 14 14 14 13 13 13 13 13 13 13 13 12 8 4 4 6 6 5 6 6 5 5 6 6 7 7 7 8 8 8 10 17 20 18 13 12 14 15 15 13 15 18 20 20 19 18 17 17 17 18 18 17
4 3 3 2 2 2 2 2 3 3 2 2 3 1 0 2 5 8 10 9 8 8 8 8 8 9 9 10 12 13 13 13 13 12 12 12 12 12 12 12 12 12 11 10 10 7 3 4 6 6 6 6 6 5 6 6 7 7 8 8 9 9 10 13 17 17 13 12 14 15 14 13 14 17 19 18 17 17 17 18 18 17 17 17 18
4 3 3 3 3 3 3 4 4 5 4 4 3 2 3 4 4 4 6 8 10 10 11 11 10 9 10 11 12 13 12 12 13 12 12 11 11 11 11 11 10 9 7 6 7 5 3 4 6 5 5 6 6 6 7 7 8 9 9 9 9 10 11 13 14 12 12 14 15 13 13 14 16 17 18 17 16 17 18 18 18 17 17 18 19
4 3 2 2 3 4 5 5 5 6 7 6 5 3 4 6 6 4 4 5 6 8 10 12 13 12 12 11 12 12 12 13 12 11 11 11 10 10 10 9 7 7 6 7 7 5 3 4 6 5 6 6 7 7 8 9 9 9 9 9 10 10 12 12 11 12 14 16 15 14 15 16 16 16 16 16 17 18 18 18 17 17 18 19 20
4 3 3 3 4 5 5 6 7 7 7 8 7 6 4 4 5 5 5 5 5 5 5 8 11 13 14 14 13 12 13 13 12 11 10 10 10 11 10 7 5 6 7 8 7 6 5 7 7 7 7 8 8 9 9 9 10 10 11 11 12 12 12 12 12 14 16 16 15 15 16 16 16 16 16 17 18 18 18 18 19 19 19 20 21
3 1 1 2 3 4 5 7 8 8 9 9 8 6 5 4 5 5 4 5 5 5 5 6 7 10 13 16 16 15 15 12 8 7 8 8 10 11 9 6 5 6 7 7 6 7 7 8 8 9 9 10 11 11 12 12 12 12 12 12 12 13 13 13 13 15 16 15 15 16 16 16 16 17 17 18 19 19 19 20 20 21 21 22 24
3 3 2 1 3 4 6 7 8 9 9 8 7 6 5 5 6 6 5 6 7 6 6 6 5 6 8 9 11 16 16 8 2 3 6 8 9 9 8 6 6 7 7 6 7 7 8 9 10 11 12 12 13 13 14 14 15 14 14 15 14 13 13 14 14 15 16 16 16 16 16 17 17 18 18 19 20 20 20 20 20 21 22 24 25
5 5 3 3 4 4 5 6 7 6 5 4 4 5 5 5 6 5 5 6 7 6 6 6 5 6 7 9 12 17 17 9 3 2 5 6 6 6 6 7 7 7 7 7 7 8 8 9 10 11 11 12 12 12 12 13 14 15 16 17 16 14 13 14 14 15 16 16 16 17 17 18 18 18 19 20 20 20 21 21 22 23 25 26 25
7 7 7 5 5 6 6 6 5 3 3 4 5 6 5 5 6 6 5 6 6 6 6 5 5 8 13 15 17 20 20 16 9 4 4 6 6 6 6 7 7 7 8 7 7 8 11 13 14 13 11 10 11 12 12 12 12 12 14 16 16 14 14 15 15 16 17 17 18 19 20 20 20 20 20 21 21 22 23 24 25 25 25 25 24
8 9 10 9 7 7 7 6 3 5 7 8 8 7 6 6 6 6 6 6 5 6 6 5 7 13 17 18 18 21 22 20 14 7 5 8 8 7 7 7 7 7 8 8 8 11 15 17 19 19 17 15 15 16 17 16 13 11 10 12 15 15 15 16 16 17 18 19 19 20 21 22 23 22 22 22 24 24 24 24 24 24 24 24 24
11 9 10 10 9 8 6 3 5 10 12 11 8 6 6 7 7 6 6 6 6 7 6 5 8 14 17 17 19 21 21 17 12 8 7 8 9 8 8 8 7 7 8 9 10 12 13 14 17 20 21 19 19 21 22 21 19 17 15 14 15 16 16 16 17 17 18 18 19 20 21 22 23 23 23 24 25 24 23 23 23 24 24 24 24
13 12 11 11 9 8 7 7 8 9 8 6 6 8 10 11 9 6 6 7 6 7 8 6 7 12 16 18 18 17 13 9 7 7 8 8 9 9 9 8 7 8 9 9 10 10 10 10 11 14 16 17 17 18 20 20 21 23 23 21 21 21 20 19 20 20 19 19 21 21 21 22 22 23 23 24 24 24 24 24 24 24 24 24 25
14 12 12 11 10 10 11 10 9 8 9 11 12 13 13 11 8 5 6 7 6 7 8 8 7 9 12 15 15 11 8 7 7 8 9 8 9 9 9 8 9 10 9 9 9 9 9 10 10 10 12 12 12 13 14 15 16 18 19 20 20 20 19 19 20 20 19 20 21 22 22 22 22 22 22 23 23 24 24 24 25 25 26 26 26
13 10 9 9 9 8 8 8 8 9 11 12 11 10 9 8 6 5 6 7 7 7 8 9 9 9 9 10 10 9 8 8 8 9 9 9 9 9 9 9 9 9 9 9 9 10 11 11 11 11 12 11 11 12 12 12 12 13 14 15 16 17 18 19 20 20 19 19 19 20 20 20 20 20 20 21 22 24 25 26 26 27 28 29 29
10 9 8 8 8 8 7 7 8 9 9 8 7 7 8 7 6 7 7 7 7 8 8 9 9 9 9 9 9 9 9 9 9 9 9 9 9 9 9 9 9 9 8 9 9 10 11 11 12 12 12 12 12 13 12 12 12 12 12 13 15 18 21 23 23 23 24 24 24 24 25 25 26 25 25 25 25 26 27 28 28 28 29 30 31
11 11 10 8 8 8 8 9 10 9 9 8 8 8 7 6 7 7 7 7 8 8 9 9 9 9 9 9 9 9 9 9 9 9 9 9 9 9 8 8 9 9 9 9 9 9 10 10 11 12 12 12 13 13 13 13 13 12 11 14 19 23 25 25 26 26 28 30 30 31 32 33 34 33 30 28 28 28 28 29 29 29 30 30 31
12 12 10 9 8 8 7 8 9 9 8 8 7 7 7 7 7 6 7 7 7 7 8 9 8 8 9 9 9 9 9 9 9 9 9 9 9 9 9 9 9 9 9 9 10 10 10 10 10 11 12 13 13 13 13 13 13 11 11 16 23 26 26 26 28 30 31 32 33 34 35 37 37 35 32 30 30 29 30 31 31 31 31 32 32
10 9 8 8 8 8 7 7 7 6 6 6 6 6 7 6 6 6 6 6 7 7 8 9 8 8 9 9 8 8 8 9 9 9 8 8 8 9 9 9 9 9 10 11 12 12 11 11 11 12 12 13 13 13 13 13 13 12 14 20 25 26 27 28 30 31 33 34 35 36 37 39 39 39 39 39 38 37 37 38 36 32 32 32 33
8 8 7 7 7 7 7 8 7 6 7 7 6 6 5 5 5 6 6 6 6 7 8 8 8 8 8 8 8 8 8 8 8 8 8 8 9 9 9 9 10 10 10 11 11 11 11 11 11 12 12 12 12 12 13 13 12 13 18 23 25 26 27 29 30 31 33 34 35 36 37 38 39 40 40 41 40 38 38 38 35 31 30 30 30
7 7 7 7 6 6 7 7 6 6 7 7 6 5 5 5 5 5 6 6 7 7 8 8 8 8 8 8 8 8 8 8 8 8 8 8 8 9 9 9 9 10 10 10 10 10 10 10 10 11 11 12 12 13 13 12 12 15 21 24 25 27 28 28 28 28 29 30 31 31 32 32 33 33 33 32 32 31 30 30 29 28 29 29 29
Wind_Direction
194 195 194 196 199 200 205 208 207 206 205 207 208 209 211 210 210 212 212 210 212 216 216 210 210 212 209 211 214 213 218 216 211 227 238 223 216 227 233 241 247 239 233 233 231 240 253 253 252 253 253 255 265 272 277 282 280 278 281 283 287 284 280 286 292 296 299 300 301 303 305 307 308 306 305 305 303 298 296 300 306 310 312 311 309
194 195 194 196 198 199 202 205 208 208 209 211 211 211 211 211 211 211 212 215 213 214 220 218 216 214 208 212 212 208 223 227 213 216 230 234 230 223 235 255 251 235 239 242 238 240 250 258 259 260 267 269 271 275 279 283 283 283 283 283 285 285 282 286 290 294 299 302 304 305 306 307 303 301 302 301 301 301 301 304 307 308 308 307 306
197 197 196 197 199 200 202 204 207 209 210 213 214 213 213 212 213 212 212 216 216 215 219 218 219 217 210 214 212 209 226 234 218 213 224 235 239 223 225 250 253 243 246 250 250 250 253 261 265 264 267 270 271 273 277 281 285 286 285 284 284 284 284 286 288 291 296 302 306 306 305 303 301 301 303 303 302 303 303 305 305 305 306 305 305
200 199 199 199 199 201 205 206 208 210 211 213 214 214 215 213 214 215 214 216 217 218 219 216 218 221 215 215 219 217 225 232 223 220 227 236 240 233 227 233 238 240 243 244 248 251 253 258 263 265 264 265 268 271 275 279 281 282 283 284 285 286 287 287 289 291 293 298 304 305 305 306 308 308 307 304 302 303 304 304 304 304 305 306 306
202 201 202 203 201 203 206 207 210 213 213 215 216 216 216 215 215 215 216 219 219 219 220 217 216 222 221 218 223 224 225 229 227 224 231 239 241 240 239 238 240 243 244 246 248 249 252 256 259 263 264 266 269 273 276 277 277 280 282 283 284 286 287 286 288 291 292 295 301 307 310 311 310 308 306 305 305 306 306 305 306 307 307 307 307
201 201 205 209 209 208 208 208 211 214 215 215 217 218 216 217 218 217 217 221 222 220 222 222 219 221 223 219 222 228 228 228 230 228 228 233 237 239 241 242 244 245 245 249 254 255 256 258 260 260 261 263 266 269 271 272 273 277 280 282 283 285 286 289 292 294 295 296 299 304 307 307 305 304 303 304 305 305 307 308 311 311 309 307 306
198 199 205 214 218 216 214 213 212 213 216 216 215 219 219 217 218 219 219 220 223 223 222 223 223 223 226 224 223 228 232 230 230 232 229 229 233 235 236 239 242 245 246 248 250 253 255 257 260 260 260 261 262 264 269 273 277 280 281 283 286 288 290 291 293 293 292 293 295 298 300 300 300 302 303 306 307 305 307 310 311 310 308 306 306
201 202 204 211 217 218 216 218 217 213 213 214 214 215 218 219 218 220 222 221 222 225 224 224 224 224 226 228 225 227 233 233 231 232 232 229 230 234 237 239 240 242 247 249 250 253 255 257 258 259 260 262 263 263 262 264 269 274 279 282 283 283 284 286 288 289 290 291 294 296 297 298 300 303 305 308 309 307 307 309 308 308 309 307 306
212 211 210 209 213 215 212 214 219 218 214 213 213 211 211 216 218 218 221 223 223 225 226 225 225 225 225 227 227 227 231 233 233 234 234 232 234 237 238 240 243 244 247 251 253 255 256 258 259 259 258 259 260 260 260 261 264 264 266 271 275 278 282 286 288 288 289 291 292 295 297 299 301 305 306 308 309 307 307 306 304 304 305 303 301
225 221 217 214 214 216 212 206 211 219 221 219 217 213 210 211 216 217 219 221 223 224 225 225 225 226 226 227 229 230 231 234 238 239 237 235 236 236 235 237 241 243 245 249 252 255 257 259 261 262 261 259 259 262 268 272 272 269 270 275 280 284 287 288 289 289 289 290 292 296 299 300 302 306 308 309 309 309 308 307 305 305 305 304 304
230 227 225 224 222 222 220 215 210 212 216 219 221 220 216 213 214 216 217 219 221 222 223 225 225 226 228 229 230 232 234 237 241 244 244 242 239 237 238 242 245 245 247 251 254 257 260 261 263 265 266 265 266 271 277 277 272 272 277 282 285 286 289 290 291 291 291 290 293 296 298 300 304 308 311 311 310 310 308 307 308 309 308 307 306
227 226 227 229 227 223 222 222 220 216 215 218 221 223 223 221 219 217 218 219 220 221 222 224 225 227 229 231 233 236 240 241 242 245 249 252 252 249 247 248 251 252 254 256 258 259 261 263 264 266 267 268 269 273 277 277 274 274 274 276 280 283 288 291 293 294 294 293 294 296 299 302 305 307 308 308 307 306 305 306 309 309 307 305 305
222 222 223 225 224 222 221 224 227 229 230 228 225 225 226 227 226 224 223 222 223 225 225 224 226 227 229 233 237 242 247 248 246 247 250 254 258 259 254 249 249 253 253 253 255 258 261 265 266 265 267 270 269 266 267 271 276 278 276 274 275 278 282 285 286 288 291 292 293 294 297 301 303 304 306 307 306 305 305 306 307 305 303 304 304
220 222 222 222 222 222 223 226 229 232 232 230 227 227 227 227 227 227 227 226 226 229 230 229 231 232 233 236 238 244 250 250 246 246 248 253 257 260 259 253 250 253 255 256 257 258 260 263 267 270 271 270 264 260 259 262 270 277 282 279 276 277 280 282 282 283 286 289 292 295 298 300 301 302 304 304 302 301 300 301 301 301 302 303 305
223 224 223 222 223 223 223 226 228 230 232 233 232 232 232 231 230 228 229 227 227 231 233 232 232 235 236 236 237 241 244 243 242 241 243 249 255 260 263 258 253 253 253 255 257 259 260 262 264 266 265 263 260 258 259 262 267 273 277 276 276 280 283 285 285 285 285 286 288 291 294 296 297 299 300 299 295 294 294 296 299 302 304 306 306
228 232 230 227 226 225 221 220 222 224 228 232 235 235 234 235 234 233 234 231 227 230 232 230 227 226 226 226 228 233 234 234 236 238 239 244 250 257 262 262 259 257 256 257 259 259 257 254 252 254 257 259 261 261 262 265 268 272 274 277 280 281 282 284 284 282 280 279 282 285 288 291 294 297 300 299 297 297 297 298 303 309 311 309 306
215 226 229 228 228 228 223 220 223 225 226 232 236 236 236 237 237 237 237 236 232 231 233 236 232 225 224 225 228 235 236 232 234 238 241 244 248 253 257 256 255 256 257 258 252 247 247 246 247 251 256 261 265 266 267 269 271 273 276 279 280 279 281 283 282 281 278 277 281 285 288 290 293 297 299 299 300 303 305 306 311 315 312 307 306
127 148 185 202 211 218 223 228 232 232 231 235 239 239 239 240 240 239 240 242 243 241 240 244 241 234 233 233 233 239 242 239 237 238 241 245 250 253 252 250 250 254 260 261 252 245 247 250 251 254 257 262 266 268 270 272 272 273 275 276 277 279 281 281 281 282 283 284 287 289 290 292 294 296 298 299 302 307 310 313 316 313 307 305 307
94 91 90 110 141 160 194 224 227 220 221 228 232 234 238 240 240 242 244 246 249 248 242 242 241 238 238 238 236 239 245 247 247 245 246 250 253 253 252 253 254 255 259 261 255 251 254 255 256 260 259 259 262 264 267 269 269 268 270 272 275 276 276 277 280 284 286 289 291 291 292 293 296 299 303 306 309 311 308 308 311 308 303 304 306
94 90 77 67 68 74 84 102 114 133 182 213 221 224 231 236 236 239 241 240 242 242 236 231 230 228 232 237 234 232 238 245 248 250 252 254 253 251 250 253 254 249 250 255 251 246 249 248 251 259 259 256 257 260 263 265 265 265 266 269 270 270 271 275 280 284 287 289 291 293 294 296 300 306 310 310 310 306 300 299 302 301 300 301 301
98 96 86 76 69 71 82 91 87 86 106 127 163 200 213 223 226 228 232 232 233 234 230 223 218 216 223 231 227 222 230 240 245 248 251 250 248 247 246 250 252 244 242 248 249 245 249 251 253 257 259 259 259 260 261 262 264 268 270 272 274 275 278 281 283 285 288 291 294 296 298 301 305 310 309 305 306 305 298 294 294 295 296 297 297
102 101 96 91 87 85 88 86 78 70 76 80 76 90 125 164 185 189 205 225 234 235 235 232 226 221 224 231 229 224 228 235 237 242 248 248 245 245 245 252 256 248 242 246 248 250 253 256 256 256 258 262 265 265 264 266 271 277 280 280 280 282 283 284 286 288 291 294 298 300 304 308 310 308 305 305 308 304 299 297 296 297 299 299 299
96 95 94 94 96 97 90 81 78 77 76 74 73 78 85 91 101 113 128 165 223 210 188 196 226 223 216 221 231 233 233 232 229 233 244 249 247 247 247 247 254 259 254 248 251 258 259 258 259 258 258 262 268 269 270 276 282 286 285 282 284 287 289 290 292 293 295 297 300 303 305 303 300 300 302 303 301 299 303 309 309 305 304 303 301
85 78 77 74 71 79 93 92 86 82 71 68 76 77 73 79 85 88 95 100 70 74 98 122 133 150 184 205 218 231 240 245 244 234 239 245 247 253 259 255 255 272 275 252 258 272 269 263 266 269 268 272 278 287 299 306 304 298 294 292 291 292 296 299 298 289 284 285 291 294 294 294 298 303 303 300 301 306 313 316 312 306 303 302 300
91 84 74 64 47 31 35 60 88 102 91 64 67 67 58 64 83 83 86 106 99 87 91 92 70 57 38 264 215 208 257 287 331 15 221 250 267 280 296 299 290 284 295 290 276 275 284 292 297 300 299 297 300 308 312 309 301 297 298 298 297 301 307 304 292 279 277 281 286 290 294 300 305 304 300 301 308 316 321 318 313 311 312 311 309
92 97 93 87 90 89 65 41 63 84 85 62 60 72 65 65 85 84 69 62 94 117 131 130 112 78 27 15 9 9 17 11 344 341 334 329 339 339 331 328 319 284 291 300 284 269 288 307 312 312 309 306 309 312 310 307 304 300 306 315 320 326 315 285 275 281 289 291 289 289 295 302 303 301 303 309 315 320 319 315 313 314 317 319 318
75 77 82 77 85 107 115 111 81 66 74 76 69 70 68 62 97 133 125 106 92 115 159 154 142 140 135 145 152 36 11 266 280 302 307 299 306 315 320 322 315 297 299 303 295 290 297 304 306 307 305 305 312 314 313 316 315 309 323 333 321 307 287 277 280 291 295 291 290 295 302 307 308 308 310 311 312 312 310 307 306 310 315 319 320
76 54 56 56 55 61 66 75 72 47 51 131 141 127 98 77 168 212 203 195 186 159 140 175 195 185 184 195 183 154 203 244 260 278 284 285 296 301 301 301 298 297 298 296 293 297 301 301 305 308 309 313 321 323 324 331 326 312 304 284 272 279 288 289 299 307 292 287 297 307 311 313 310 309 309 308 308 307 302 301 305 311 317 319 319
102 86 70 59 61 57 37 43 77 65 30 356 260 221 188 194 255 251 229 224 232 234 218 218 227 221 221 229 221 215 231 244 250 261 270 281 291 292 290 290 291 292 295 293 294 299 304 308 312 313 312 315 318 315 312 313 304 289 276 272 282 296 293 294 308 301 282 291 306 314 314 310 305 306 309 307 303 301 301 306 312 315 318 317 315
108 121 141 143 118 93 57 32 121 130 100 41 329 300 275 255 269 283 265 238 238 239 236 241 247 246 249 255 251 246 250 256 258 263 271 280 286 288 289 290 290 292 295 298 301 307 316 324 319 298 285 284 282 279 278 271 267 274 280 290 301 300 290 298 300 281 281 297 313 314 307 305 306 308 308 303 301 304 308 313 314 313 313 312 309
89 74 84 197 181 156 120 49 171 185 188 199 290 327 327 320 311 302 288 272 263 255 246 248 252 251 254 263 266 263 262 265 269 272 275 280 283 286 288 290 292 296 299 301 304 312 321 319 303 283 270 266 267 272 270 267 274 283 286 292 297 297 303 304 285 278 288 305 312 305 304 308 310 308 304 304 307 311 314 314 312 311 310 309 306
89 70 38 22 104 219 259 314 314 250 238 259 302 30 349 333 327 321 312 297 289 285 277 268 263 257 256 263 271 274 273 272 273 275 277 279 282 284 286 290 293 298 301 305 309 313 308 288 282 273 265 264 265 268 273 276 281 284 287 293 293 295 301 291 282 288 303 312 304 303 311 313 308 304 304 308 313 313 313 312 311 311 311 308 306
77 70 53 46 45 13 345 335 318 304 298 297 288 265 17 336 326 323 322 323 323 317 305 294 285 276 269 266 270 275 277 278 279 280 282 284 286 289 291 293 297 303 310 317 321 318 290 274 278 272 266 267 264 269 281 285 285 286 292 295 295 295 296 294 296 306 315 308 304 313 317 309 303 303 306 311 312 309 309 311 311 312 311 308 306
84 70 50 41 37 23 12 1 341 329 320 302 297 320 330 307 287 290 314 327 333 330 319 311 305 297 287 281 276 274 275 277 279 281 284 286 289 292 295 297 304 313 325 340 343 335 288 265 276 274 270 273 274 277 283 285 287 291 295 296 297 298 298 302 310 318 312 304 308 316 313 306 306 309 310 311 309 307 307 309 310 310 307 305 305
98 84 60 38 32 22 10 360 349 342 335 325 319 322 317 311 310 307 302 305 315 322 322 317 311 307 302 297 289 281 275 272 272 275 282 289 292 293 295 301 314 327 333 340 347 347 303 270 278 280 278 280 283 282 283 285 288 291 294 295 297 299 300 306 311 308 304 306 311 313 311 311 312 312 311 308 306 307 307 308 307 305 303 303 304
97 74 47 28 21 15 2 348 340 338 334 328 319 306 300 310 318 313 305 300 299 302 306 307 308 312 314 314 309 296 281 274 274 276 280 288 294 296 299 307 321 324 316 315 320 319 293 278 281 283 283 284 284 283 283 284 283 283 283 287 292 296 299 301 301 300 303 310 314 312 311 312 312 311 309 307 307 307 307 306 305 303 301 300 299
129 122 79 24 8 0 349 339 335 331 326 324 323 319 315 314 305 298 299 299 294 290 290 293 302 311 317 323 324 310 292 285 289 293 293 296 300 303 310 320 316 303 296 294 295 291 282 278 278 280 280 280 280 281 281 279 277 275 275 277 282 285 287 290 295 301 306 308 308 308 309 309 309 309 309 308 308 307 305 305 305 304 302 300 300
202 214 239 308 339 349 347 340 338 336 333 331 328 320 312 305 300 299 298 291 290 295 299 301 306 305 306 313 310 297 291 296 353 3 337 329 321 321 326 322 303 294 291 289 285 281 279 282 282 280 280 280 278 277 278 278 275 270 268 272 278 283 286 290 297 302 302 300 301 304 306 306 307 308 308 307 306 306 306 306 305 304 302 301 303
233 236 243 276 311 329 338 341 338 333 326 319 304 294 293 292 291 293 294 293 298 303 296 296 306 292 270 260 265 276 287 305 359 29 351 336 318 309 307 298 292 295 295 291 291 290 286 281 274 270 274 279 277 272 272 275 276 273 273 277 281 285 288 293 296 296 295 296 298 301 302 303 305 306 307 307 306 305 304 302 301 302 302 303 305
242 244 248 267 298 312 319 333 339 321 292 286 283 280 282 282 280 280 283 285 292 293 289 297 301 277 265 266 271 277 287 295 294 295 328 320 299 291 296 297 298 300 296 292 293 288 274 260 251 247 249 254 256 255 252 253 259 267 276 281 281 281 285 290 292 292 293 293 295 297 298 301 303 304 304 304 303 302 301 300 300 302 304 304 304
231 243 255 265 277 293 310 326 312 267 273 288 288 277 270 270 271 274 278 277 280 284 286 292 286 274 272 277 280 280 283 287 285 282 303 305 295 292 294 293 293 296 296 293 290 285 277 264 254 250 249 249 250 250 247 242 240 245 260 271 271 271 278 285 287 289 290 290 290 293 295 297 298 298 299 300 302 303 302 301 301 301 301 300 300
224 234 251 260 267 281 298 294 259 272 294 309 303 277 261 258 257 262 271 271 271 279 280 275 276 280 284 287 286 286 290 293 291 288 294 296 295 297 296 294 295 298 296 289 284 285 286 279 265 256 254 256 259 258 256 252 247 243 247 254 256 260 272 281 282 283 287 290 291 293 293 293 293 294 295 297 299 300 299 298 298 299 299 299 299
228 229 239 250 257 264 263 252 256 273 292 295 276 269 269 264 255 256 271 274 273 278 279 273 274 284 291 296 298 301 307 310 305 297 294 292 294 296 296 298 300 294 285 280 280 287 298 299 288 273 265 265 268 269 268 266 261 257 259 263 265 269 277 284 285 285 287 288 290 291 292 292 293 293 294 296 297 296 296 296 296 298 298 298 299
235 235 240 247 252 254 256 257 256 252 254 262 270 277 280 276 266 262 270 273 273 276 278 279 279 280 286 294 302 310 313 307 300 296 291 289 292 296 297 298 297 291 284 280 283 287 289 290 294 294 289 284 285 285 283 282 279 274 273 276 279 283 288 290 290 289 290 290 292 293 293 292 291 291 292 294 295 295 294 294 295 296 297 297 298
239 237 237 242 246 248 253 255 247 244 257 272 279 277 272 269 264 259 261 265 269 272 273 275 277 276 277 284 291 296 296 294 294 292 290 291 295 297 296 294 292 289 285 281 279 279 279 279 284 290 292 294 295 293 290 289 290 290 290 291 292 291 287 281 278 278 281 286 290 291 289 285 286 289 292 294 295 295 294 293 293 294 294 294 295
231 227 223 226 228 224 225 234 238 244 255 262 259 256 259 259 254 251 253 256 262 268 269 271 274 276 277 280 283 285 286 287 288 289 289 290 290 291 292 292 291 290 287 286 286 285 284 286 289 291 291 293 295 294 295 295 295 296 299 298 291 282 277 274 275 276 278 278 278 278 277 278 281 285 289 291 292 293 293 292 292 292 291 291 292
223 226 223 222 223 225 227 230 232 238 246 249 248 249 251 249 247 249 253 256 261 267 271 272 273 274 274 275 277 279 280 283 286 287 289 290 290 289 289 288 289 290 290 291 293 292 290 290 293 293 292 293 293 294 297 296 294 296 300 291 280 274 273 274 276 277 276 276 276 278 279 280 281 284 287 290 291 291 290 290 291 292 292 292 291
227 229 226 221 221 226 231 234 240 252 258 253 245 239 237 241 246 248 249 255 261 266 269 271 272 273 274 276 278 280 282 284 286 287 287 286 286 286 286 285 286 289 291 287 285 285 287 290 291 292 293 294 295 296 295 291 290 294 291 277 270 270 272 273 274 273 273 275 278 279 279 279 281 283 285 288 288 288 289 289 290 290 290 290 290
220 221 223 223 221 222 222 222 230 246 247 237 235 239 239 240 243 245 248 254 259 262 265 269 271 272 274 276 279 281 283 285 286 286 286 287 286 288 290 289 287 288 288 284 280 281 286 291 294 295 296 296 297 297 296 293 294 292 279 268 265 267 269 270 270 271 272 273 275 276 277 279 280 281 282 284 285 287 289 290 290 289 289 289 288
209 206 212 216 214 216 221 221 222 227 229 228 233 240 241 240 244 251 254 257 258 261 264 267 270 272 274 276 278 281 283 285 286 286 287 289 289 290 290 289 287 287 288 288 287 287 290 295 299 298 296 297 297 296 296 297 296 287 276 271 271 271 270 270 271 272 273 275 276 277 278 279 280 281 283 285 287 288 289 290 291 289 288 288 287
206 202 207 212 211 212 217 220 221 224 229 230 229 232 240 248 253 256 258 259 260 263 267 268 270 272 273 274 278 280 281 282 284 286 287 290 291 292 293 293 292 292 293 296 297 295 294 296 298 297 297 298 298 294 295 296 290 278 274 274 277 278 278 280 281 281 282 282 283 283 283 285 286 288 290 292 293 293 292 291 289 287 286 286 286
Height
1578 1579 1581 1582 1584 1585 1586 1587 1589 1590 1592 1593 1594 1596 1597 1597 1599 1600 1600 1601 1602 1602 1603 1603 1604 1605 1605 1606 1606 1606 1607 1607 1608 1608 1608 1609 1609 1609 1609 1610 1611 1611 1611 1611 1612 1612 1611 1611 1611 1611 1611 1611 1611 1612 1611 1612 1611 1611 1611 1611 1610 1610 1610 1609 1609 1608 1608 1607 1607 1606 1606 1605 1604 1604 1603 1602 1601 1600 1598 1597 1595 1593 1592 1591 1590
1577 1578 1579 1581 1582 1584 1585 1586 1587 1589 1590 1592 1593 1594 1595 1596 1597 1598 1599 1600 1601 1601 1602 1602 1603 1603 1604 1605 1606 1606 1606 1606 1607 1607 1608 1608 1608 1609 1609 1610 1610 1610 1610 1610 1610 1611 1611 1610 1610 1611 1611 1611 1611 1611 1612 1612 1612 1611 1611 1611 1610 1610 1610 1609 1608 1607 1607 1606 1605 1605 1604 1604 1603 1602 1601 1600 1599 1598 1596 1595 1593 1592 1592 1590 1589
1576 1577 1578 1580 1581 1583 1584 1585 1586 1587 1589 1590 1591 1593 1594 1595 1596 1596 1598 1599 1599 1600 1601 1602 1602 1602 1603 1604 1604 1605 1605 1605 1606 1606 1607 1607 1607 1608 1609 1609 1609 1609 1609 1610 1610 1610 1610 1610 1610 1611 1611 1611 1611 1611 1611 1611 1611 1611 1611 1610 1610 1610 1609 1608 1607 1606 1605 1605 1604 1603 1603 1602 1601 1600 1599 1598 1597 1596 1594 1593 1592 1591 1590 1589 1588
1574 1575 1577 1578 1580 1581 1583 1584 1585 1586 1587 1589 1590 1591 1592 1593 1594 1595 1596 1597 1598 1599 1600 1601 1601 1601 1602 1603 1603 1603 1604 1604 1605 1605 1606 1606 1606 1607 1607 1608 1608 1608 1609 1609 1609 1610 1610 1610 1610 1610 1611 1611 1611 1611 1611 1611 1611 1610 1610 1610 1609 1609 1608 1607 1607 1606 1605 1603 1603 1602 1601 1600 1599 1599 1598 1597 1596 1594 1593 1592 1591 1590 1588 1587 1586
1573 1574 1575 1577 1578 1580 1581 1582 1584 1585 1586 1587 1588 1590 1591 1592 1592 1593 1595 1596 1597 1598 1599 1599 1600 1600 1600 1601 1602 1602 1603 1603 1604 1605 1605 1606 1606 1606 1606 1606 1607 1607 1607 1608 1608 1608 1609 1609 1610 1610 1610 1610 1610 1610 1610 1610 1610 1610 1610 1609 1609 1608 1608 1607 1606 1605 1604 1603 1602 1601 1600 1599 1598 1598 1597 1596 1594 1593 1591 1590 1589 1588 1586 1585 1585
1571 1572 1573 1575 1576 1578 1579 1580 1582 1583 1584 1585 1587 1588 1589 1590 1591 1591 1593 1594 1595 1597 1597 1598 1598 1599 1599 1600 1601 1601 1602 1602 1603 1603 1605 1605 1605 1606 1606 1606 1606 1606 1606 1607 1607 1607 1608 1608 1608 1609 1609 1609 1610 1610 1610 1609 1609 1609 1609 1608 1608 1607 1607 1606 1606 1605 1604 1602 1601 1600 1599 1599 1598 1597 1596 1595 1593 1591 1590 1588 1587 1587 1585 1584 1583
1569 1571 1572 1572 1574 1575 1577 1578 1579 1581 1582 1583 1585 1586 1587 1588 1589 1590 1592 1593 1594 1595 1596 1597 1597 1597 1598 1598 1599 1600 1600 1601 1602 1602 1603 1604 1604 1605 1605 1605 1605 1605 1606 1606 1606 1607 1607 1607 1607 1607 1608 1608 1608 1609 1609 1609 1608 1608 1608 1608 1607 1607 1606 1606 1605 1604 1603 1602 1601 1600 1599 1598 1597 1596 1595 1594 1592 1591 1589 1587 1586 1585 1584 1583 1581
1566 1568 1569 1571 1572 1573 1575 1576 1577 1578 1580 1581 1582 1584 1585 1586 1588 1589 1590 1591 1592 1593 1594 1595 1596 1596 1597 1597 1598 1599 1599 1599 1600 1600 1601 1602 1603 1603 1604 1604 1604 1605 1605 1605 1605 1606 1606 1606 1606 1606 1607 1607 1607 1607 1607 1608 1607 1607 1607 1607 1606 1606 1605 1604 1604 1603 1602 1601 1600 1599 1598 1597 1596 1594 1593 1593 1591 1590 1589 1588 1585 1583 1582 1581 1579
1565 1566 1567 1569 1570 1571 1573 1574 1574 1575 1576 1577 1579 1580 1582 1584 1585 1587 1588 1589 1591 1592 1593 1594 1594 1595 1595 1596 1596 1597 1598 1598 1599 1599 1600 1601 1601 1602 1603 1603 1603 1603 1604 1604 1604 1604 1605 1605 1605 1605 1605 1605 1605 1605 1605 1606 1606 1605 1605 1605 1605 1604 1604 1603 1603 1602 1601 1600 1599 1598 1597 1596 1595 1594 1593 1592 1591 1590 1588 1587 1584 1582 1581 1579 1577
1563 1564 1565 1567 1568 1569 1570 1571 1571 1571 1572 1574 1575 1577 1580 1582 1583 1585 1586 1587 1589 1590 1591 1592 1593 1593 1594 1594 1595 1595 1596 1597 1597 1598 1599 1599 1600 1601 1601 1601 1602 1602 1602 1602 1603 1603 1603 1603 1603 1604 1604 1604 1603 1603 1603 1603 1603 1603 1603 1603 1603 1603 1602 1602 1601 1601 1600 1599 1598 1598 1596 1595 1594 1593 1592 1591 1590 1588 1586 1585 1582 1581 1579 1576 1573
1560 1562 1563 1564 1566 1566 1567 1567 1567 1567 1568 1571 1573 1575 1577 1579 1580 1582 1583 1585 1586 1587 1588 1589 1590 1591 1592 1593 1594 1594 1595 1596 1596 1596 1597 1598 1599 1599 1600 1600 1600 1600 1600 1600 1601 1601 1601 1602 1602 1602 1602 1602 1601 1601 1601 1601 1601 1601 1601 1601 1601 1601 1601 1600 1600 1600 1599 1598 1597 1597 1596 1594 1592 1591 1590 1588 1587 1586 1584 1583 1580 1578 1577 1574 1571
1557 1558 1560 1561 1563 1563 1565 1565 1565 1565 1566 1568 1570 1572 1574 1576 1577 1579 1580 1582 1583 1584 1586 1587 1588 1589 1590 1591 1592 1593 1593 1594 1595 1595 1595 1596 1597 1597 1598 1599 1599 1599 1599 1599 1599 1600 1600 1600 1600 1600 1600 1601 1600 1600 1599 1599 1599 1599 1600 1600 1600 1600 1599 1599 1598 1598 1598 1597 1596 1595 1594 1592 1590 1589 1587 1586 1584 1583 1581 1580 1579 1577 1575 1573 1570
1554 1556 1557 1558 1559 1560 1562 1563 1564 1565 1566 1567 1569 1570 1572 1574 1575 1577 1578 1579 1581 1582 1583 1584 1586 1587 1588 1589 1590 1591 1592 1592 1593 1593 1593 1594 1594 1595 1596 1597 1597 1598 1598 1598 1598 1598 1598 1598 1598 1598 1599 1599 1599 1598 1598 1597 1597 1597 1597 1598 1598 1598 1598 1598 1597 1596 1596 1595 1593 1593 1592 1591 1588 1586 1585 1584 1582 1580 1578 1577 1577 1575 1573 1571 1568
1552 1553 1554 1556 1557 1558 1560 1561 1563 1564 1565 1566 1568 1569 1570 1572 1573 1574 1575 1576 1577 1579 1580 1581 1583 1584 1585 1586 1588 1589 1589 1589 1590 1591 1591 1591 1592 1592 1594 1594 1595 1596 1596 1596 1596 1596 1596 1596 1596 1596 1597 1596 1596 1596 1596 1596 1595 1595 1595 1596 1596 1596 1596 1595 1595 1594 1593 1592 1591 1590 1590 1589 1586 1584 1583 1582 1580 1578 1576 1575 1574 1572 1570 1567 1565
1551 1552 1552 1554 1556 1557 1559 1560 1561 1562 1564 1565 1566 1567 1568 1569 1570 1572 1572 1573 1575 1576 1577 1579 1580 1582 1583 1585 1586 1586 1585 1585 1586 1587 1588 1589 1590 1590 1592 1592 1593 1594 1594 1594 1594 1594 1594 1594 1594 1594 1593 1592 1592 1593 1593 1593 1593 1593 1594 1594 1593 1593 1593 1593 1592 1591 1591 1590 1589 1588 1587 1587 1585 1583 1581 1580 1578 1577 1575 1573 1572 1570 1567 1564 1562
1550 1551 1552 1554 1555 1555 1556 1557 1558 1559 1560 1562 1564 1565 1565 1566 1568 1569 1570 1571 1572 1573 1575 1577 1578 1578 1579 1581 1582 1582 1582 1583 1584 1584 1585 1586 1587 1588 1589 1590 1591 1591 1592 1593 1593 1592 1591 1590 1590 1590 1589 1589 1590 1590 1591 1591 1591 1591 1591 1591 1591 1590 1590 1590 1590 1589 1588 1588 1587 1586 1585 1584 1583 1581 1579 1578 1576 1575 1573 1571 1570 1568 1565 1562 1560
1549 1550 1551 1553 1553 1553 1554 1555 1555 1556 1558 1560 1561 1562 1562 1563 1565 1566 1568 1569 1570 1571 1573 1575 1575 1576 1577 1578 1579 1579 1580 1582 1582 1583 1583 1584 1584 1586 1587 1588 1588 1589 1590 1590 1589 1588 1587 1587 1587 1587 1587 1587 1588 1588 1588 1589 1589 1589 1589 1589 1588 1588 1588 1588 1587 1587 1586 1586 1585 1584 1583 1582 1580 1578 1577 1576 1574 1573 1571 1569 1568 1566 1564 1562 1560
1549 1550 1550 1551 1552 1552 1553 1553 1554 1556 1557 1558 1558 1559 1560 1561 1562 1564 1565 1567 1568 1569 1572 1574 1575 1575 1576 1576 1577 1577 1578 1580 1581 1581 1581 1581 1582 1583 1584 1584 1585 1586 1587 1586 1585 1585 1585 1586 1586 1585 1584 1584 1584 1585 1585 1586 1586 1586 1586 1586 1586 1586 1586 1585 1584 1584 1583 1583 1582 1581 1580 1578 1577 1575 1574 1573 1572 1571 1569 1567 1566 1564 1562 1561 1559
1550 1551 1551 1551 1552 1552 1553 1553 1554 1556 1556 1556 1555 1556 1557 1559 1560 1561 1563 1564 1566 1568 1570 1571 1572 1573 1573 1573 1573 1575 1576 1578 1579 1579 1579 1579 1579 1580 1580 1580 1581 1584 1584 1583 1584 1585 1584 1583 1583 1582 1581 1581 1581 1581 1581 1582 1582 1582 1583 1583 1583 1583 1583 1582 1581 1581 1580 1579 1578 1577 1576 1575 1574 1572 1571 1571 1570 1569 1567 1565 1564 1562 1560 1558 1557
1551 1552 1553 1553 1553 1553 1554 1554 1555 1555 1556 1555 1555 1555 1556 1557 1558 1560 1561 1562 1563 1565 1566 1568 1568 1569 1569 1569 1570 1572 1574 1575 1575 1575 1576 1576 1576 1577 1577 1577 1578 1580 1580 1581 1582 1583 1581 1580 1580 1579 1579 1578 1578 1578 1578 1578 1578 1578 1579 1579 1580 1580 1580 1579 1579 1578 1577 1576 1575 1574 1573 1572 1571 1570 1570 1569 1568 1567 1565 1564 1562 1561 1559 1556 1555
1552 1553 1554 1555 1556 1555 1556 1556 1556 1557 1557 1556 1555 1555 1556 1557 1558 1559 1560 1560 1561 1562 1563 1564 1565 1565 1566 1567 1568 1570 1571 1571 1572 1573 1573 1573 1573 1574 1574 1574 1575 1577 1578 1578 1580 1580 1579 1578 1578 1577 1577 1576 1576 1575 1575 1574 1575 1575 1576 1576 1576 1576 1576 1576 1576 1575 1574 1573 1572 1572 1571 1570 1570 1569 1569 1568 1567 1565 1563 1562 1560 1559 1557 1555 1553
1553 1554 1555 1556 1557 1557 1557 1558 1558 1559 1558 1557 1557 1557 1557 1557 1557 1559 1560 1560 1560 1560 1561 1563 1563 1563 1564 1566 1567 1568 1569 1569 1569 1570 1571 1571 1571 1571 1572 1572 1573 1574 1576 1577 1577 1577 1577 1577 1576 1576 1575 1574 1574 1573 1572 1572 1572 1573 1573 1574 1574 1574 1574 1573 1573 1572 1572 1571 1571 1570 1569 1569 1569 1568 1567 1566 1565 1563 1561 1560 1559 1557 1556 1554 1553
1554 1554 1556 1557 1557 1558 1558 1558 1559 1560 1560 1559 1559 1559 1558 1558 1558 1559 1560 1560 1560 1560 1561 1562 1562 1562 1563 1564 1565 1567 1567 1567 1567 1567 1569 1569 1570 1570 1570 1570 1571 1571 1573 1576 1577 1576 1576 1575 1575 1574 1573 1573 1572 1572 1571 1570 1570 1570 1571 1571 1572 1572 1572 1571 1570 1570 1569 1569 1569 1569 1568 1568 1567 1566 1565 1563 1562 1560 1559 1557 1556 1555 1553 1552 1551
1555 1555 1556 1557 1558 1559 1559 1559 1560 1561 1561 1561 1561 1560 1560 1560 1560 1560 1561 1561 1561 1561 1561 1562 1562 1562 1563 1564 1565 1566 1566 1566 1565 1565 1566 1567 1568 1568 1569 1569 1569 1569 1571 1573 1575 1575 1574 1574 1573 1572 1572 1572 1571 1570 1569 1568 1568 1569 1569 1570 1570 1570 1570 1569 1569 1568 1567 1567 1568 1567 1566 1565 1564 1563 1562 1561 1559 1557 1556 1555 1554 1552 1551 1550 1549
1556 1556 1557 1558 1559 1560 1560 1560 1560 1562 1563 1563 1562 1562 1562 1562 1562 1562 1562 1562 1562 1562 1563 1563 1563 1563 1564 1564 1565 1566 1565 1565 1565 1565 1566 1566 1566 1567 1567 1568 1568 1569 1570 1572 1574 1574 1573 1572 1572 1571 1571 1570 1569 1569 1568 1567 1567 1568 1568 1569 1569 1568 1568 1568 1567 1566 1566 1566 1566 1565 1564 1563 1562 1561 1560 1558 1556 1555 1554 1552 1551 1550 1549 1548 1546
1557 1558 1558 1559 1561 1562 1562 1562 1562 1562 1563 1563 1563 1563 1563 1563 1563 1563 1563 1563 1563 1563 1563 1564 1564 1565 1566 1567 1567 1567 1566 1565 1565 1565 1566 1565 1565 1566 1567 1567 1568 1569 1570 1571 1571 1571 1571 1571 1571 1570 1569 1569 1568 1567 1566 1566 1566 1566 1567 1567 1568 1568 1568 1567 1565 1565 1564 1564 1563 1562 1561 1561 1560 1559 1557 1556 1554 1553 1552 1551 1549 1547 1546 1545 1543
1559 1559 1559 1560 1561 1562 1562 1562 1563 1563 1563 1564 1564 1564 1563 1563 1563 1563 1563 1564 1563 1563 1563 1564 1564 1566 1567 1568 1568 1569 1568 1566 1565 1565 1565 1565 1565 1566 1566 1566 1568 1569 1569 1569 1569 1569 1569 1569 1569 1568 1567 1567 1566 1566 1565 1565 1565 1565 1566 1567 1567 1568 1567 1565 1564 1564 1563 1562 1561 1560 1559 1558 1557 1556 1555 1554 1553 1552 1551 1549 1547 1545 1544 1543 1540
1559 1560 1561 1561 1561 1562 1561 1562 1563 1563 1563 1563 1563 1562 1562 1562 1562 1561 1562 1562 1562 1563 1564 1564 1564 1565 1565 1566 1567 1568 1567 1565 1564 1565 1565 1565 1565 1566 1566 1567 1567 1568 1569 1569 1569 1568 1567 1567 1567 1566 1565 1565 1564 1564 1564 1564 1564 1564 1566 1566 1566 1567 1566 1564 1563 1562 1561 1559 1559 1558 1557 1556 1555 1554 1553 1553 1552 1551 1549 1547 1545 1543 1542 1540 1539
1559 1561 1562 1562 1562 1562 1563 1563 1563 1563 1563 1562 1561 1560 1560 1560 1560 1560 1561 1561 1562 1562 1563 1563 1563 1564 1564 1564 1564 1565 1565 1564 1564 1565 1565 1565 1565 1565 1566 1566 1567 1567 1567 1567 1567 1566 1566 1565 1565 1564 1564 1564 1564 1564 1564 1564 1564 1565 1566 1565 1565 1566 1565 1564 1562 1561 1559 1557 1557 1556 1555 1554 1553 1552 1552 1551 1550 1548 1547 1545 1543 1541 1539 1538 1537
1559 1560 1561 1561 1561 1562 1563 1563 1562 1562 1563 1562 1561 1560 1560 1560 1560 1560 1560 1560 1560 1561 1561 1561 1562 1563 1562 1562 1562 1563 1563 1563 1563 1564 1563 1564 1564 1564 1564 1565 1565 1565 1565 1564 1564 1564 1563 1563 1563 1564 1564 1565 1565 1565 1565 1565 1565 1565 1565 1565 1565 1565 1564 1563 1561 1558 1557 1556 1556 1555 1553 1552 1551 1550 1550 1548 1547 1545 1544 1543 1541 1539 1538 1537 1536
1559 1559 1559 1560 1560 1561 1562 1562 1561 1561 1561 1561 1561 1560 1560 1560 1560 1559 1559 1559 1559 1560 1560 1560 1561 1561 1561 1560 1560 1561 1562 1561 1561 1561 1561 1562 1562 1562 1562 1562 1562 1562 1562 1562 1562 1562 1562 1562 1563 1563 1564 1564 1564 1565 1565 1564 1564 1564 1564 1564 1564 1563 1563 1561 1558 1555 1555 1555 1555 1553 1552 1551 1550 1549 1547 1546 1544 1543 1542 1541 1540 1538 1537 1536 1534
1559 1559 1560 1560 1560 1561 1561 1561 1561 1561 1561 1561 1561 1561 1561 1561 1560 1559 1559 1559 1559 1559 1559 1559 1559 1559 1559 1558 1558 1558 1559 1559 1559 1559 1559 1560 1560 1560 1560 1560 1560 1560 1560 1559 1560 1560 1561 1562 1563 1563 1563 1563 1563 1564 1563 1563 1563 1563 1562 1562 1561 1561 1560 1558 1555 1554 1555 1555 1553 1552 1551 1550 1549 1547 1545 1544 1543 1541 1540 1539 1538 1536 1535 1534 1532
1559 1559 1560 1560 1561 1561 1561 1561 1561 1561 1560 1560 1560 1560 1561 1561 1561 1559 1558 1558 1558 1558 1558 1557 1557 1557 1557 1557 1556 1556 1556 1556 1557 1557 1557 1557 1557 1557 1557 1558 1558 1558 1558 1558 1558 1558 1559 1561 1562 1562 1562 1562 1562 1562 1562 1562 1561 1561 1560 1559 1559 1558 1558 1556 1554 1553 1554 1553 1551 1550 1550 1549 1547 1545 1543 1543 1542 1540 1539 1537 1536 1534 1533 1531 1530
1560 1560 1560 1560 1561 1561 1561 1561 1561 1560 1560 1560 1560 1560 1561 1560 1560 1559 1559 1558 1558 1557 1557 1556 1556 1556 1556 1555 1555 1555 1555 1554 1554 1554 1555 1555 1555 1555 1555 1556 1556 1556 1557 1557 1557 1557 1558 1560 1560 1561 1561 1561 1560 1560 1560 1560 1559 1559 1558 1558 1557 1557 1555 1554 1553 1553 1552 1550 1549 1549 1548 1547 1545 1543 1542 1541 1540 1539 1537 1535 1534 1533 1531 1529 1528
1560 1560 1561 1561 1561 1561 1561 1561 1560 1560 1560 1560 1559 1560 1560 1560 1559 1560 1560 1559 1559 1559 1557 1556 1555 1555 1555 1554 1554 1553 1553 1553 1553 1553 1553 1553 1553 1554 1554 1554 1555 1555 1556 1556 1556 1556 1557 1558 1559 1559 1559 1559 1558 1558 1558 1558 1558 1558 1557 1556 1556 1555 1553 1552 1552 1552 1550 1548 1548 1547 1546 1545 1544 1542 1541 1540 1539 1537 1535 1534 1533 1531 1529 1527 1525
1560 1561 1561 1561 1561 1561 1561 1560 1560 1560 1560 1560 1559 1559 1559 1560 1560 1560 1560 1559 1559 1559 1559 1557 1556 1555 1554 1553 1553 1552 1552 1551 1552 1552 1552 1552 1552 1553 1553 1554 1554 1555 1556 1556 1556 1556 1557 1557 1557 1557 1557 1557 1557 1557 1557 1557 1557 1556 1556 1555 1555 1554 1553 1552 1551 1550 1548 1547 1547 1546 1545 1544 1543 1541 1540 1538 1537 1536 1534 1532 1531 1529 1527 1525 1523
1560 1560 1560 1560 1560 1560 1560 1560 1560 1560 1559 1559 1559 1559 1559 1559 1559 1559 1559 1559 1559 1558 1558 1557 1556 1555 1554 1553 1552 1551 1550 1550 1551 1551 1551 1552 1552 1552 1552 1553 1554 1556 1556 1555 1555 1556 1556 1556 1556 1556 1556 1556 1556 1556 1556 1555 1555 1555 1554 1553 1553 1552 1551 1550 1549 1548 1547 1547 1546 1545 1544 1543 1541 1540 1538 1537 1535 1534 1532 1530 1528 1526 1525 1523 1520
1559 1559 1559 1560 1559 1560 1560 1559 1559 1559 1559 1559 1559 1559 1558 1559 1558 1558 1558 1558 1557 1557 1557 1556 1557 1557 1556 1555 1553 1550 1549 1549 1550 1551 1551 1552 1552 1552 1553 1554 1554 1555 1555 1555 1555 1555 1555 1555 1555 1555 1555 1555 1554 1554 1554 1553 1553 1552 1552 1551 1551 1550 1549 1548 1548 1547 1547 1546 1545 1544 1543 1541 1540 1538 1537 1535 1533 1532 1530 1528 1526 1524 1522 1520 1518
1558 1558 1559 1559 1558 1559 1559 1559 1558 1558 1559 1559 1559 1559 1558 1558 1558 1558 1558 1557 1557 1556 1556 1556 1556 1556 1555 1553 1552 1550 1549 1549 1549 1550 1551 1552 1553 1553 1553 1553 1553 1553 1553 1553 1553 1553 1553 1553 1553 1552 1553 1552 1552 1551 1551 1551 1550 1550 1549 1548 1548 1548 1547 1547 1547 1546 1546 1544 1543 1542 1541 1539 1538 1536 1535 1533 1531 1530 1528 1526 1524 1522 1519 1517 1516
1558 1558 1557 1557 1557 1557 1557 1557 1558 1558 1558 1558 1558 1558 1558 1557 1557 1557 1557 1556 1556 1556 1555 1555 1555 1553 1551 1551 1550 1549 1549 1549 1549 1549 1550 1551 1551 1551 1552 1551 1552 1552 1551 1551 1552 1551 1550 1549 1548 1548 1548 1548 1547 1546 1546 1546 1546 1547 1547 1547 1546 1546 1546 1545 1545 1544 1544 1542 1541 1540 1539 1537 1536 1534 1533 1531 1529 1527 1525 1523 1521 1520 1518 1516 1515
1556 1556 1556 1556 1556 1556 1556 1556 1557 1557 1556 1556 1556 1556 1556 1556 1556 1555 1555 1555 1555 1554 1554 1554 1553 1551 1549 1549 1549 1548 1547 1548 1547 1547 1549 1549 1549 1549 1549 1549 1549 1550 1550 1550 1550 1549 1546 1545 1545 1546 1545 1544 1544 1543 1543 1543 1543 1543 1544 1544 1544 1543 1543 1543 1542 1541 1540 1539 1538 1537 1536 1535 1534 1532 1530 1529 1527 1525 1523 1521 1520 1518 1516 1515 1513
1554 1555 1554 1554 1555 1555 1555 1556 1556 1555 1554 1553 1553 1553 1554 1554 1553 1553 1553 1553 1553 1553 1552 1553 1552 1549 1547 1548 1548 1546 1545 1546 1546 1546 1547 1547 1547 1546 1546 1546 1547 1548 1548 1548 1548 1546 1544 1542 1542 1542 1542 1542 1541 1540 1540 1540 1541 1540 1540 1540 1539 1539 1539 1539 1538 1537 1537 1536 1535 1534 1533 1532 1531 1529 1527 1526 1524 1523 1521 1519 1518 1516 1514 1512 1510
1552 1552 1552 1553 1553 1553 1553 1554 1553 1553 1552 1552 1551 1551 1550 1550 1551 1551 1551 1551 1551 1551 1550 1550 1550 1548 1547 1546 1545 1545 1545 1545 1545 1546 1546 1546 1545 1545 1544 1544 1545 1545 1545 1544 1544 1543 1542 1541 1540 1539 1539 1539 1538 1538 1537 1537 1537 1537 1536 1536 1535 1535 1535 1534 1534 1534 1533 1532 1531 1530 1529 1528 1527 1526 1524 1523 1521 1520 1518 1517 1515 1513 1511 1509 1507
1549 1549 1550 1550 1550 1550 1550 1550 1551 1551 1551 1550 1549 1548 1548 1548 1548 1549 1549 1549 1549 1549 1549 1549 1549 1548 1547 1546 1545 1545 1545 1545 1545 1545 1544 1544 1543 1542 1542 1542 1542 1542 1541 1540 1540 1539 1539 1538 1538 1537 1537 1536 1536 1536 1535 1535 1534 1534 1534 1533 1533 1532 1532 1532 1531 1530 1529 1528 1528 1527 1526 1525 1524 1522 1521 1520 1518 1516 1515 1513 1512 1510 1508 1506 1504
1547 1547 1548 1548 1548 1548 1548 1548 1548 1548 1548 1547 1547 1547 1546 1546 1546 1547 1547 1547 1547 1548 1548 1547 1547 1547 1546 1545 1545 1544 1544 1544 1543 1543 1542 1542 1541 1541 1541 1540 1539 1538 1538 1537 1537 1536 1535 1535 1535 1535 1534 1534 1534 1534 1533 1532 1532 1532 1531 1531 1531 1530 1529 1527 1526 1526 1525 1524 1523 1522 1521 1520 1519 1518 1517 1516 1515 1513 1511 1509 1508 1506 1505 1503 1502
1545 1545 1546 1546 1546 1546 1546 1546 1546 1546 1546 1546 1546 1545 1545 1545 1545 1545 1545 1545 1545 1546 1546 1545 1545 1545 1544 1544 1544 1543 1543 1542 1541 1541 1540 1540 1539 1539 1538 1537 1536 1535 1535 1534 1534 1533 1533 1532 1532 1532 1532 1532 1532 1531 1531 1531 1530 1530 1530 1530 1528 1526 1524 1523 1522 1522 1522 1521 1519 1518 1517 1515 1515 1514 1513 1512 1511 1509 1507 1505 1504 1502 1501 1499 1498
1542 1543 1543 1544 1544 1543 1543 1544 1543 1543 1543 1543 1543 1543 1544 1544 1543 1543 1543 1543 1543 1543 1543 1543 1543 1543 1543 1543 1542 1541 1540 1540 1539 1538 1538 1538 1537 1536 1535 1534 1534 1533 1532 1532 1532 1531 1531 1530 1530 1529 1529 1528 1528 1528 1528 1528 1528 1528 1529 1527 1524 1521 1520 1520 1519 1519 1518 1516 1515 1514 1513 1512 1511 1510 1508 1507 1506 1504 1502 1500 1499 1498 1497 1495 1494
1540 1540 1541 1541 1541 1542 1542 1541 1541 1541 1541 1541 1541 1541 1541 1542 1541 1541 1541 1541 1541 1541 1542 1542 1541 1541 1541 1540 1539 1538 1538 1537 1537 1536 1536 1535 1534 1534 1533 1532 1531 1531 1530 1529 1529 1528 1528 1528 1527 1526 1526 1525 1525 1525 1525 1524 1524 1525 1525 1523 1519 1516 1517 1517 1516 1514 1513 1512 1512 1511 1509 1507 1506 1505 1503 1502 1501 1499 1497 1496 1494 1493 1492 1491 1490
1538 1538 1539 1539 1539 1540 1540 1540 1540 1540 1540 1540 1540 1539 1539 1539 1539 1539 1539 1540 1540 1540 1540 1540 1540 1539 1539 1538 1537 1536 1536 1535 1535 1534 1533 1532 1532 1531 1530 1530 1529 1528 1527 1527 1526 1526 1525 1525 1525 1524 1523 1522 1522 1521 1521 1520 1521 1521 1520 1517 1514 1513 1513 1513 1511 1510 1509 1508 1507 1506 1504 1503 1501 1500 1499 1498 1497 1495 1493 1492 1490 1489 1488 1487 1485
1536 1537 1537 1537 1538 1538 1538 1538 1538 1538 1538 1538 1538 1538 1538 1538 1537 1537 1538 1538 1538 1538 1538 1538 1537 1537 1536 1535 1535 1534 1534 1533 1532 1531 1531 1530 1529 1529 1528 1527 1526 1525 1525 1524 1523 1523 1523 1523 1522 1521 1520 1520 1519 1519 1518 1518 1518 1517 1515 1512 1511 1510 1510 1509 1508 1507 1506 1504 1503 1502 1500 1499 1498 1496 1495 1494 1493 1491 1490 1488 1487 1486 1484 1483 1481
1535 1535 1536 1536 1536 1537 1537 1536 1536 1536 1536 1535 1536 1536 1536 1536 1536 1536 1536 1536 1536 1536 1536 1536 1535 1535 1534 1534 1533 1532 1531 1531 1530 1529 1528 1528 1527 1526 1525 1524 1523 1523 1522 1521 1521 1521 1520 1520 1519 1518 1518 1517 1516 1516 1515 1515 1515 1513 1511 1509 1508 1507 1506 1505 1505 1504 1502 1501 1499 1498 1497 1496 1495 1493 1492 1491 1490 1488 1486 1485 1484 1483 1481 1480 1479